Time,TemperatureF,DewpointF,PressureIn,WindDirection,WindDirectionDegrees,WindSpeedMPH,WindSpeedGustMPH,Humidity,HourlyPrecipIn,Conditions,Clouds,dailyrainin,SolarRadiationWatts/m^2,SoftwareType,DateUTC
2013-04-23 00:00:00,49.7,49.1,29.56,SW,232,7.4,10.7,97,0.00,,,-99.99,1.0,HOBO +U30 +Weather +,2013-04-23 07:00:00,
2013-04-23 00:05:00,49.7,49.1,29.56,SW,227,6.7,9.6,97,0.00,,,-99.99,1.0,HOBO +U30 +Weather +,2013-04-23 07:05:00,
2013-04-23 00:10:00,49.9,49.2,29.56,SW,232,6.3,10.1,97,0.00,,,-99.99,1.0,HOBO +U30 +Weather +,2013-04-23 07:10:00,
2013-04-23 00:15:00,50.0,49.2,29.56,SW,227,6.3,8.9,97,0.00,,,-99.99,1.0,HOBO +U30 +Weather +,2013-04-23 07:15:00,
2013-04-23 00:20:00,50.1,49.3,29.56,SW,226,5.6,8.9,96,0.00,,,-99.99,1.0,HOBO +U30 +Weather +,2013-04-23 07:20:00,
2013-04-23 00:25:00,50.5,49.4,29.56,SW,229,5.6,8.5,96,0.00,,,-99.99,1.0,HOBO +U30 +Weather +,2013-04-23 07:25:00,
2013-04-23 00:30:00,50.9,49.6,29.56,SW,227,5.6,8.5,95,0.00,,,-99.99,1.0,HOBO +U30 +Weather +,2013-04-23 07:30:00,
2013-04-23 00:35:00,52.0,49.9,29.56,SW,227,5.1,7.8,92,0.00,,,-99.99,1.0,HOBO +U30 +Weather +,2013-04-23 07:35:00,
2013-04-23 00:40:00,53.7,50.5,29.56,SW,230,4.5,7.8,88,0.00,,,-99.99,1.0,HOBO +U30 +Weather +,2013-04-23 07:40:00,
2013-04-23 00:45:00,54.6,49.9,29.56,SW,233,4.0,6.3,83,0.00,,,-99.99,1.0,HOBO +U30 +Weather +,2013-04-23 07:45:00,
2013-04-23 00:50:00,54.3,48.7,29.56,SW,236,4.0,7.4,81,0.00,,,-99.99,1.0,HOBO +U30 +Weather +,2013-04-23 07:50:00,
2013-04-23 00:55:00,54.0,48.1,29.56,SW,232,4.0,7.4,80,0.00,,,-99.99,1.0,HOBO +U30 +Weather +,2013-04-23 07:55:00,
2013-04-23 01:00:00,53.6,47.6,29.56,WSW,237,3.4,6.7,80,0.00,,,-99.99,1.0,HOBO +U30 +Weather +,2013-04-23 08:00:00,
2013-04-23 01:05:00,52.8,47.2,29.56,WSW,237,2.9,5.1,81,0.00,,,-99.99,1.0,HOBO +U30 +Weather +,2013-04-23 08:05:00,
2013-04-23 01:10:00,52.4,47.3,29.56,WSW,241,2.2,5.1,82,0.00,,,-99.99,1.0,HOBO +U30 +Weather +,2013-04-23 08:10:00,
2013-04-23 01:15:00,52.2,47.1,29.56,WSW,243,2.2,5.6,82,0.00,,,-99.99,1.0,HOBO +U30 +Weather +,2013-04-23 08:15:00,
2013-04-23 01:20:00,52.1,47.4,29.56,SW,229,2.2,4.5,84,0.00,,,-99.99,1.0,HOBO +U30 +Weather +,2013-04-23 08:20:00,
2013-04-23 01:25:00,51.5,47.2,29.56,SW,230,3.4,6.3,85,0.00,,,-99.99,1.0,HOBO +U30 +Weather +,2013-04-23 08:25:00,
2013-04-23 01:30:00,50.8,47.1,29.56,SW,227,4.0,7.4,87,0.00,,,-99.99,1.0,HOBO +U30 +Weather +,2013-04-23 08:30:00,
2013-04-23 01:35:00,51.1,47.6,29.55,SW,229,2.2,4.5,87,0.00,,,-99.99,1.0,HOBO +U30 +Weather +,2013-04-23 08:35:00,
2013-04-23 01:40:00,51.1,47.3,29.55,SW,227,2.9,5.1,86,0.00,,,-99.99,1.0,HOBO +U30 +Weather +,2013-04-23 08:40:00,
2013-04-23 01:45:00,51.1,47.3,29.55,SW,227,3.4,5.6,86,0.00,,,-99.99,1.0,HOBO +U30 +Weather +,2013-04-23 08:45:00,
2013-04-23 01:50:00,50.5,46.9,29.55,SW,230,2.2,5.6,87,0.00,,,-99.99,1.0,HOBO +U30 +Weather +,2013-04-23 08:50:00,
2013-04-23 01:55:00,50.5,46.8,29.55,SW,227,3.4,5.6,87,0.00,,,-99.99,1.0,HOBO +U30 +Weather +,2013-04-23 08:55:00,
2013-04-23 02:00:00,50.5,47.0,29.55,SW,229,2.9,4.5,87,0.00,,,-99.99,1.0,HOBO +U30 +Weather +,2013-04-23 09:00:00,
2013-04-23 02:05:00,50.6,46.9,29.55,SW,229,2.2,4.5,87,0.00,,,-99.99,1.0,HOBO +U30 +Weather +,2013-04-23 09:05:00,
2013-04-23 02:10:00,51.3,47.4,29.55,SW,230,0.7,2.9,86,0.00,,,-99.99,1.0,HOBO +U30 +Weather +,2013-04-23 09:10:00,
2013-04-23 02:15:00,51.9,47.3,29.55,SW,233,0.7,2.9,84,0.00,,,-99.99,1.0,HOBO +U30 +Weather +,2013-04-23 09:15:00,
2013-04-23 02:20:00,54.1,48.0,29.55,NW,306,0.0,2.2,79,0.00,,,-99.99,1.0,HOBO +U30 +Weather +,2013-04-23 09:20:00,
2013-04-23 02:25:00,53.3,46.0,29.55,North,355,0.0,1.1,76,0.00,,,-99.99,1.0,HOBO +U30 +Weather +,2013-04-23 09:25:00,
2013-04-23 02:30:00,53.3,46.4,29.55,NW,324,0.0,1.1,77,0.00,,,-99.99,1.0,HOBO +U30 +Weather +,2013-04-23 09:30:00,
2013-04-23 02:35:00,55.9,47.7,29.55,NW,307,0.0,2.2,73,0.00,,,-99.99,1.0,HOBO +U30 +Weather +,2013-04-23 09:35:00,
2013-04-23 02:40:00,58.7,47.3,29.55,NW,313,0.7,3.4,65,0.00,,,-99.99,1.0,HOBO +U30 +Weather +,2013-04-23 09:40:00,
2013-04-23 02:45:00,60.2,43.9,29.55,NW,321,0.7,4.5,54,0.00,,,-99.99,1.0,HOBO +U30 +Weather +,2013-04-23 09:45:00,
2013-04-23 02:50:00,61.1,42.3,29.54,NNW,331,0.7,4.0,49,0.00,,,-99.99,1.0,HOBO +U30 +Weather +,2013-04-23 09:50:00,
2013-04-23 02:55:00,61.2,41.1,29.54,NNW,338,0.7,5.6,47,0.00,,,-99.99,1.0,HOBO +U30 +Weather +,2013-04-23 09:55:00,
2013-04-23 03:00:00,61.2,40.5,29.54,North,351,1.1,4.5,46,0.00,,,-99.99,1.0,HOBO +U30 +Weather +,2013-04-23 10:00:00,
2013-04-23 03:05:00,60.7,40.4,29.54,NNW,343,0.7,3.4,47,0.00,,,-99.99,1.0,HOBO +U30 +Weather +,2013-04-23 10:05:00,
2013-04-23 03:10:00,60.3,40.4,29.54,North,354,0.7,2.9,47,0.00,,,-99.99,1.0,HOBO +U30 +Weather +,2013-04-23 10:10:00,
2013-04-23 03:15:00,60.6,40.5,29.54,North,350,0.7,3.4,47,0.00,,,-99.99,1.0,HOBO +U30 +Weather +,2013-04-23 10:15:00,
2013-04-23 03:20:00,60.7,40.9,29.55,North,350,0.7,4.5,48,0.00,,,-99.99,1.0,HOBO +U30 +Weather +,2013-04-23 10:20:00,
2013-04-23 03:25:00,60.0,40.9,29.55,North,4,0.0,3.4,49,0.00,,,-99.99,1.0,HOBO +U30 +Weather +,2013-04-23 10:25:00,
2013-04-23 03:30:00,59.1,40.9,29.55,North,3,0.0,2.9,50,0.00,,,-99.99,1.0,HOBO +U30 +Weather +,2013-04-23 10:30:00,
2013-04-23 03:35:00,58.7,41.3,29.55,North,354,0.7,4.0,52,0.00,,,-99.99,1.0,HOBO +U30 +Weather +,2013-04-23 10:35:00,
2013-04-23 03:40:00,58.1,41.2,29.55,North,355,0.0,2.2,53,0.00,,,-99.99,1.0,HOBO +U30 +Weather +,2013-04-23 10:40:00,
2013-04-23 03:45:00,58.3,41.6,29.55,North,355,0.0,1.8,53,0.00,,,-99.99,1.0,HOBO +U30 +Weather +,2013-04-23 10:45:00,
2013-04-23 03:50:00,58.5,41.6,29.55,North,355,0.7,4.0,53,0.00,,,-99.99,1.0,HOBO +U30 +Weather +,2013-04-23 10:50:00,
2013-04-23 03:55:00,58.9,41.5,29.55,North,355,0.7,2.9,52,0.00,,,-99.99,1.0,HOBO +U30 +Weather +,2013-04-23 10:55:00,
2013-04-23 04:00:00,58.9,41.3,29.55,North,351,0.7,5.1,51,0.00,,,-99.99,1.0,HOBO +U30 +Weather +,2013-04-23 11:00:00,
2013-04-23 04:05:00,58.9,41.3,29.55,North,355,1.1,4.5,51,0.00,,,-99.99,1.0,HOBO +U30 +Weather +,2013-04-23 11:05:00,
2013-04-23 04:10:00,59.1,41.5,29.55,North,355,0.7,4.5,51,0.00,,,-99.99,1.0,HOBO +U30 +Weather +,2013-04-23 11:10:00,
2013-04-23 04:15:00,59.1,41.3,29.55,North,354,0.7,4.0,51,0.00,,,-99.99,1.0,HOBO +U30 +Weather +,2013-04-23 11:15:00,
2013-04-23 04:20:00,59.3,41.3,29.55,NNW,345,0.7,4.5,51,0.00,,,-99.99,1.0,HOBO +U30 +Weather +,2013-04-23 11:20:00,
2013-04-23 04:25:00,59.6,41.1,29.55,North,350,0.7,3.4,50,0.00,,,-99.99,1.0,HOBO +U30 +Weather +,2013-04-23 11:25:00,
2013-04-23 04:30:00,59.9,40.8,29.55,NNW,347,0.7,4.0,49,0.00,,,-99.99,1.0,HOBO +U30 +Weather +,2013-04-23 11:30:00,
2013-04-23 04:35:00,60.2,40.7,29.55,NNW,344,1.1,6.3,48,0.00,,,-99.99,1.0,HOBO +U30 +Weather +,2013-04-23 11:35:00,
2013-04-23 04:40:00,60.1,40.6,29.55,NNW,347,1.1,5.1,48,0.00,,,-99.99,1.0,HOBO +U30 +Weather +,2013-04-23 11:40:00,
2013-04-23 04:45:00,60.3,40.5,29.56,NNW,344,1.1,5.1,48,0.00,,,-99.99,1.0,HOBO +U30 +Weather +,2013-04-23 11:45:00,
2013-04-23 04:50:00,60.6,40.4,29.56,NNW,345,1.1,4.0,47,0.00,,,-99.99,1.0,HOBO +U30 +Weather +,2013-04-23 11:50:00,
2013-04-23 04:55:00,60.6,39.9,29.56,NNW,337,1.1,4.5,46,0.00,,,-99.99,1.0,HOBO +U30 +Weather +,2013-04-23 11:55:00,
2013-04-23 05:00:00,61.2,39.7,29.56,NNW,334,1.8,5.6,45,0.00,,,-99.99,1.0,HOBO +U30 +Weather +,2013-04-23 12:00:00,
2013-04-23 05:05:00,61.4,39.1,29.55,NNW,330,1.8,6.3,43,0.00,,,-99.99,1.0,HOBO +U30 +Weather +,2013-04-23 12:05:00,
2013-04-23 05:10:00,61.2,38.6,29.56,NNW,334,1.8,6.7,43,0.00,,,-99.99,1.0,HOBO +U30 +Weather +,2013-04-23 12:10:00,
2013-04-23 05:15:00,60.8,38.8,29.56,NNW,337,1.1,6.3,44,0.00,,,-99.99,1.0,HOBO +U30 +Weather +,2013-04-23 12:15:00,
2013-04-23 05:20:00,60.9,38.6,29.56,NW,324,1.8,5.6,43,0.00,,,-99.99,1.0,HOBO +U30 +Weather +,2013-04-23 12:20:00,
2013-04-23 05:25:00,60.9,38.0,29.56,NNW,344,1.8,5.1,42,0.00,,,-99.99,1.0,HOBO +U30 +Weather +,2013-04-23 12:25:00,
2013-04-23 05:30:00,60.9,37.9,29.56,North,350,1.8,5.6,42,0.00,,,-99.99,1.0,HOBO +U30 +Weather +,2013-04-23 12:30:00,
2013-04-23 05:35:00,60.6,37.5,29.56,NNW,338,1.1,5.6,42,0.00,,,-99.99,1.0,HOBO +U30 +Weather +,2013-04-23 12:35:00,
2013-04-23 05:40:00,60.8,36.8,29.57,NW,326,1.1,3.4,40,0.00,,,-99.99,1.0,HOBO +U30 +Weather +,2013-04-23 12:40:00,
2013-04-23 05:45:00,61.1,35.8,29.57,NNW,344,1.1,4.0,38,0.00,,,-99.99,1.0,HOBO +U30 +Weather +,2013-04-23 12:45:00,
2013-04-23 05:50:00,61.0,35.0,29.57,NNW,344,1.1,5.1,37,0.00,,,-99.99,1.0,HOBO +U30 +Weather +,2013-04-23 12:50:00,
2013-04-23 05:55:00,60.9,34.7,29.57,North,354,1.1,5.6,37,0.00,,,-99.99,1.0,HOBO +U30 +Weather +,2013-04-23 12:55:00,
2013-04-23 06:00:00,60.9,34.8,29.57,NNW,345,1.1,4.0,37,0.00,,,-99.99,1.0,HOBO +U30 +Weather +,2013-04-23 13:00:00,
2013-04-23 06:05:00,60.9,34.9,29.57,North,354,1.1,4.5,37,0.00,,,-99.99,1.0,HOBO +U30 +Weather +,2013-04-23 13:05:00,
2013-04-23 06:10:00,61.2,34.5,29.57,NNW,347,1.8,4.5,36,0.00,,,-99.99,1.0,HOBO +U30 +Weather +,2013-04-23 13:10:00,
2013-04-23 06:15:00,61.3,34.2,29.57,NNW,344,1.1,5.6,36,0.00,,,-99.99,1.0,HOBO +U30 +Weather +,2013-04-23 13:15:00,
2013-04-23 06:20:00,61.3,33.5,29.58,NNW,338,1.8,6.3,35,0.00,,,-99.99,3.0,HOBO +U30 +Weather +,2013-04-23 13:20:00,
2013-04-23 06:25:00,61.4,33.3,29.58,NNW,344,0.7,4.5,34,0.00,,,-99.99,7.0,HOBO +U30 +Weather +,2013-04-23 13:25:00,
2013-04-23 06:30:00,61.3,33.1,29.58,North,350,0.7,5.1,34,0.00,,,-99.99,14.0,HOBO +U30 +Weather +,2013-04-23 13:30:00,
2013-04-23 06:35:00,61.4,33.3,29.58,North,355,0.7,6.3,34,0.00,,,-99.99,23.0,HOBO +U30 +Weather +,2013-04-23 13:35:00,
2013-04-23 06:40:00,61.5,33.1,29.58,NNW,345,0.7,5.1,34,0.00,,,-99.99,33.0,HOBO +U30 +Weather +,2013-04-23 13:40:00,
2013-04-23 06:45:00,61.6,33.5,29.58,NNW,344,0.7,4.5,34,0.00,,,-99.99,47.0,HOBO +U30 +Weather +,2013-04-23 13:45:00,
2013-04-23 06:50:00,61.7,34.2,29.58,NNW,343,0.7,6.3,35,0.00,,,-99.99,64.0,HOBO +U30 +Weather +,2013-04-23 13:50:00,
2013-04-23 06:55:00,62.1,34.6,29.58,NNW,336,0.0,3.4,35,0.00,,,-99.99,81.0,HOBO +U30 +Weather +,2013-04-23 13:55:00,
2013-04-23 07:00:00,62.6,34.6,29.59,NNW,347,0.7,4.0,35,0.00,,,-99.99,99.0,HOBO +U30 +Weather +,2013-04-23 14:00:00,
2013-04-23 07:05:00,62.9,34.2,29.58,North,352,0.7,4.0,34,0.00,,,-99.99,116.0,HOBO +U30 +Weather +,2013-04-23 14:05:00,
2013-04-23 07:10:00,63.7,33.5,29.59,North,352,0.0,3.4,32,0.00,,,-99.99,131.0,HOBO +U30 +Weather +,2013-04-23 14:10:00,
2013-04-23 07:15:00,64.3,33.4,29.59,NNW,344,0.0,3.4,31,0.00,,,-99.99,146.0,HOBO +U30 +Weather +,2013-04-23 14:15:00,
2013-04-23 07:20:00,64.7,33.3,29.59,North,355,0.0,4.0,30,0.00,,,-99.99,161.0,HOBO +U30 +Weather +,2013-04-23 14:20:00,
2013-04-23 07:25:00,65.0,33.3,29.59,North,355,0.0,2.9,30,0.00,,,-99.99,174.0,HOBO +U30 +Weather +,2013-04-23 14:25:00,
2013-04-23 07:30:00,65.4,33.3,29.59,North,1,0.0,2.9,30,0.00,,,-99.99,192.0,HOBO +U30 +Weather +,2013-04-23 14:30:00,
2013-04-23 07:35:00,65.9,33.7,29.60,North,355,0.0,4.0,30,0.00,,,-99.99,208.0,HOBO +U30 +Weather +,2013-04-23 14:35:00,
2013-04-23 07:40:00,66.5,33.4,29.59,North,350,0.0,2.9,29,0.00,,,-99.99,223.0,HOBO +U30 +Weather +,2013-04-23 14:40:00,
2013-04-23 07:45:00,66.7,32.8,29.59,North,354,0.7,4.5,28,0.00,,,-99.99,239.0,HOBO +U30 +Weather +,2013-04-23 14:45:00,
2013-04-23 07:50:00,66.8,31.3,29.60,NNW,347,1.1,6.3,26,0.00,,,-99.99,254.0,HOBO +U30 +Weather +,2013-04-23 14:50:00,
2013-04-23 07:55:00,67.1,31.0,29.60,NNW,341,1.1,6.7,25,0.00,,,-99.99,269.0,HOBO +U30 +Weather +,2013-04-23 14:55:00,
2013-04-23 08:00:00,67.7,31.9,29.60,NNW,347,0.7,5.1,26,0.00,,,-99.99,284.0,HOBO +U30 +Weather +,2013-04-23 15:00:00,
2013-04-23 08:05:00,68.2,32.5,29.60,North,352,0.7,6.3,26,0.00,,,-99.99,302.0,HOBO +U30 +Weather +,2013-04-23 15:05:00,
2013-04-23 08:10:00,68.4,31.9,29.60,NNW,348,1.1,4.5,25,0.00,,,-99.99,319.0,HOBO +U30 +Weather +,2013-04-23 15:10:00,
2013-04-23 08:15:00,68.4,31.7,29.60,North,350,1.8,6.7,25,0.00,,,-99.99,337.0,HOBO +U30 +Weather +,2013-04-23 15:15:00,
2013-04-23 08:20:00,68.7,31.7,29.60,NNW,341,1.1,5.1,25,0.00,,,-99.99,351.0,HOBO +U30 +Weather +,2013-04-23 15:20:00,
2013-04-23 08:25:00,69.3,32.1,29.60,NNW,336,0.7,5.1,25,0.00,,,-99.99,366.0,HOBO +U30 +Weather +,2013-04-23 15:25:00,
2013-04-23 08:30:00,69.2,31.8,29.60,NNW,340,1.1,6.7,24,0.00,,,-99.99,383.0,HOBO +U30 +Weather +,2013-04-23 15:30:00,
2013-04-23 08:35:00,69.4,31.8,29.60,NNW,338,1.8,7.4,24,0.00,,,-99.99,398.0,HOBO +U30 +Weather +,2013-04-23 15:35:00,
2013-04-23 08:40:00,69.6,32.2,29.60,NNW,341,1.1,6.3,24,0.00,,,-99.99,413.0,HOBO +U30 +Weather +,2013-04-23 15:40:00,
2013-04-23 08:45:00,70.6,33.7,29.60,NNW,348,1.1,6.3,25,0.00,,,-99.99,431.0,HOBO +U30 +Weather +,2013-04-23 15:45:00,
2013-04-23 08:50:00,70.9,33.3,29.60,North,351,1.1,9.6,25,0.00,,,-99.99,447.0,HOBO +U30 +Weather +,2013-04-23 15:50:00,
2013-04-23 08:55:00,70.4,32.0,29.60,NNW,333,2.2,6.3,24,0.00,,,-99.99,462.0,HOBO +U30 +Weather +,2013-04-23 15:55:00,
2013-04-23 09:00:00,70.6,31.1,29.60,NNW,330,2.2,8.9,23,0.00,,,-99.99,477.0,HOBO +U30 +Weather +,2013-04-23 16:00:00,
2013-04-23 09:05:00,70.5,30.1,29.59,NNW,336,2.9,7.4,22,0.00,,,-99.99,492.0,HOBO +U30 +Weather +,2013-04-23 16:05:00,
2013-04-23 09:10:00,70.8,29.9,29.60,NNW,329,2.2,7.8,21,0.00,,,-99.99,507.0,HOBO +U30 +Weather +,2013-04-23 16:10:00,
2013-04-23 09:15:00,70.7,29.9,29.60,NW,324,2.2,11.9,21,0.00,,,-99.99,521.0,HOBO +U30 +Weather +,2013-04-23 16:15:00,
2013-04-23 09:20:00,71.2,29.9,29.60,NW,320,2.2,8.9,21,0.00,,,-99.99,536.0,HOBO +U30 +Weather +,2013-04-23 16:20:00,
2013-04-23 09:25:00,72.1,31.0,29.61,NNW,334,1.8,6.7,21,0.00,,,-99.99,549.0,HOBO +U30 +Weather +,2013-04-23 16:25:00,
2013-04-23 09:30:00,72.3,31.6,29.61,NNW,331,1.8,6.3,22,0.00,,,-99.99,564.0,HOBO +U30 +Weather +,2013-04-23 16:30:00,
2013-04-23 09:35:00,72.3,31.9,29.61,NNW,333,1.8,6.3,22,0.00,,,-99.99,578.0,HOBO +U30 +Weather +,2013-04-23 16:35:00,
2013-04-23 09:40:00,73.2,32.0,29.61,NNW,343,2.2,7.8,21,0.00,,,-99.99,589.0,HOBO +U30 +Weather +,2013-04-23 16:40:00,
2013-04-23 09:45:00,73.4,31.7,29.61,NW,324,1.8,5.6,21,0.00,,,-99.99,606.0,HOBO +U30 +Weather +,2013-04-23 16:45:00,
2013-04-23 09:50:00,73.7,31.9,29.61,NNW,337,2.2,7.4,21,0.00,,,-99.99,617.0,HOBO +U30 +Weather +,2013-04-23 16:50:00,
2013-04-23 09:55:00,73.7,31.5,29.61,NNW,341,1.8,5.6,21,0.00,,,-99.99,631.0,HOBO +U30 +Weather +,2013-04-23 16:55:00,
2013-04-23 10:00:00,74.4,32.4,29.61,NNW,340,1.1,4.5,21,0.00,,,-99.99,641.0,HOBO +U30 +Weather +,2013-04-23 17:00:00,
2013-04-23 10:05:00,74.2,31.6,29.61,NNW,344,1.1,5.6,20,0.00,,,-99.99,652.0,HOBO +U30 +Weather +,2013-04-23 17:05:00,
2013-04-23 10:10:00,75.2,32.2,29.61,NNW,340,1.8,5.1,20,0.00,,,-99.99,666.0,HOBO +U30 +Weather +,2013-04-23 17:10:00,
2013-04-23 10:15:00,75.1,31.3,29.61,NNW,343,1.8,6.3,20,0.00,,,-99.99,679.0,HOBO +U30 +Weather +,2013-04-23 17:15:00,
2013-04-23 10:20:00,75.6,30.8,29.61,NNW,348,2.2,6.3,19,0.00,,,-99.99,692.0,HOBO +U30 +Weather +,2013-04-23 17:20:00,
2013-04-23 10:25:00,77.0,31.6,29.61,NNW,333,1.1,5.6,19,0.00,,,-99.99,701.0,HOBO +U30 +Weather +,2013-04-23 17:25:00,
2013-04-23 10:30:00,75.3,31.5,29.61,NNW,331,1.8,5.1,20,0.00,,,-99.99,712.0,HOBO +U30 +Weather +,2013-04-23 17:30:00,
2013-04-23 10:35:00,74.7,33.7,29.61,NW,323,1.1,4.0,22,0.00,,,-99.99,721.0,HOBO +U30 +Weather +,2013-04-23 17:35:00,
2013-04-23 10:40:00,75.2,35.0,29.61,NW,309,1.1,6.3,23,0.00,,,-99.99,732.0,HOBO +U30 +Weather +,2013-04-23 17:40:00,
2013-04-23 10:45:00,75.5,33.5,29.61,NNW,341,1.1,5.6,21,0.00,,,-99.99,741.0,HOBO +U30 +Weather +,2013-04-23 17:45:00,
2013-04-23 10:50:00,75.2,32.1,29.61,NNW,331,1.8,5.6,20,0.00,,,-99.99,752.0,HOBO +U30 +Weather +,2013-04-23 17:50:00,
2013-04-23 10:55:00,75.5,31.5,29.61,NNW,337,1.8,5.6,19,0.00,,,-99.99,762.0,HOBO +U30 +Weather +,2013-04-23 17:55:00,
2013-04-23 11:00:00,75.9,32.5,29.61,NNW,340,2.2,5.6,20,0.00,,,-99.99,772.0,HOBO +U30 +Weather +,2013-04-23 18:00:00,
2013-04-23 11:05:00,75.7,35.7,29.61,NNW,330,1.1,5.1,23,0.00,,,-99.99,781.0,HOBO +U30 +Weather +,2013-04-23 18:05:00,
2013-04-23 11:10:00,76.0,36.4,29.62,NW,313,1.1,5.1,23,0.00,,,-99.99,789.0,HOBO +U30 +Weather +,2013-04-23 18:10:00,
2013-04-23 11:15:00,73.8,35.9,29.62,West,278,1.1,6.7,25,0.00,,,-99.99,797.0,HOBO +U30 +Weather +,2013-04-23 18:15:00,
2013-04-23 11:20:00,69.3,40.3,29.62,SW,232,5.6,9.6,34,0.00,,,-99.99,801.0,HOBO +U30 +Weather +,2013-04-23 18:20:00,
2013-04-23 11:25:00,67.8,41.5,29.62,SW,230,6.7,11.2,38,0.00,,,-99.99,807.0,HOBO +U30 +Weather +,2013-04-23 18:25:00,
2013-04-23 11:30:00,69.0,41.8,29.62,SW,226,5.6,10.1,37,0.00,,,-99.99,813.0,HOBO +U30 +Weather +,2013-04-23 18:30:00,
2013-04-23 11:35:00,65.6,44.2,29.62,WSW,239,7.8,13.4,45,0.00,,,-99.99,818.0,HOBO +U30 +Weather +,2013-04-23 18:35:00,
2013-04-23 11:40:00,62.3,46.3,29.62,SW,230,10.1,15.2,55,0.00,,,-99.99,822.0,HOBO +U30 +Weather +,2013-04-23 18:40:00,
2013-04-23 11:45:00,62.8,46.8,29.62,SW,230,8.9,15.2,55,0.00,,,-99.99,828.0,HOBO +U30 +Weather +,2013-04-23 18:45:00,
2013-04-23 11:50:00,61.3,46.0,29.62,SW,234,10.1,18.1,57,0.00,,,-99.99,836.0,HOBO +U30 +Weather +,2013-04-23 18:50:00,
2013-04-23 11:55:00,61.7,47.0,29.62,SW,236,10.7,15.9,58,0.00,,,-99.99,839.0,HOBO +U30 +Weather +,2013-04-23 18:55:00,
2013-04-23 12:00:00,61.3,47.4,29.63,WSW,239,10.1,17.0,60,0.00,,,-99.99,843.0,HOBO +U30 +Weather +,2013-04-23 19:00:00,
2013-04-23 12:05:00,60.6,47.5,29.62,SW,232,10.7,17.0,61,0.00,,,-99.99,849.0,HOBO +U30 +Weather +,2013-04-23 19:05:00,
2013-04-23 12:10:00,60.2,47.4,29.62,SW,236,11.2,18.1,62,0.00,,,-99.99,854.0,HOBO +U30 +Weather +,2013-04-23 19:10:00,
2013-04-23 12:15:00,59.8,47.8,29.62,SW,234,11.2,17.4,64,0.00,,,-99.99,854.0,HOBO +U30 +Weather +,2013-04-23 19:15:00,
2013-04-23 12:20:00,59.7,48.2,29.62,SW,234,11.2,17.4,65,0.00,,,-99.99,863.0,HOBO +U30 +Weather +,2013-04-23 19:20:00,
2013-04-23 12:25:00,59.0,48.1,29.62,SW,233,11.2,17.0,66,0.00,,,-99.99,864.0,HOBO +U30 +Weather +,2013-04-23 19:25:00,
2013-04-23 12:30:00,59.1,48.5,29.62,SW,230,12.3,19.7,67,0.00,,,-99.99,867.0,HOBO +U30 +Weather +,2013-04-23 19:30:00,
2013-04-23 12:35:00,59.5,49.3,29.61,SW,230,12.3,18.1,68,0.00,,,-99.99,871.0,HOBO +U30 +Weather +,2013-04-23 19:35:00,
2013-04-23 12:40:00,57.6,48.4,29.62,SW,230,13.0,19.7,71,0.00,,,-99.99,874.0,HOBO +U30 +Weather +,2013-04-23 19:40:00,
2013-04-23 12:45:00,57.3,49.3,29.62,SW,230,13.4,20.4,74,0.00,,,-99.99,877.0,HOBO +U30 +Weather +,2013-04-23 19:45:00,
2013-04-23 12:50:00,57.0,49.4,29.61,SW,233,14.1,20.8,75,0.00,,,-99.99,873.0,HOBO +U30 +Weather +,2013-04-23 19:50:00,
2013-04-23 12:55:00,56.6,49.5,29.61,SW,230,13.4,19.2,76,0.00,,,-99.99,869.0,HOBO +U30 +Weather +,2013-04-23 19:55:00,
2013-04-23 13:00:00,56.8,49.3,29.62,SW,232,13.0,20.8,75,0.00,,,-99.99,876.0,HOBO +U30 +Weather +,2013-04-23 20:00:00,
2013-04-23 13:05:00,56.2,49.0,29.62,SW,236,13.4,20.4,76,0.00,,,-99.99,862.0,HOBO +U30 +Weather +,2013-04-23 20:05:00,
2013-04-23 13:10:00,56.8,49.7,29.62,SW,232,11.9,19.7,77,0.00,,,-99.99,871.0,HOBO +U30 +Weather +,2013-04-23 20:10:00,
2013-04-23 13:15:00,57.0,49.7,29.61,SW,234,13.0,20.8,76,0.00,,,-99.99,872.0,HOBO +U30 +Weather +,2013-04-23 20:15:00,
2013-04-23 13:20:00,56.7,49.3,29.61,SW,234,13.4,22.6,76,0.00,,,-99.99,864.0,HOBO +U30 +Weather +,2013-04-23 20:20:00,
2013-04-23 13:25:00,57.2,50.2,29.61,SW,232,14.1,23.0,77,0.00,,,-99.99,871.0,HOBO +U30 +Weather +,2013-04-23 20:25:00,
2013-04-23 13:30:00,57.3,49.6,29.61,SW,234,12.3,20.4,75,0.00,,,-99.99,871.0,HOBO +U30 +Weather +,2013-04-23 20:30:00,
2013-04-23 13:35:00,56.9,49.2,29.61,SW,229,14.1,21.5,75,0.00,,,-99.99,861.0,HOBO +U30 +Weather +,2013-04-23 20:35:00,
2013-04-23 13:40:00,57.4,49.3,29.61,SW,230,13.0,20.8,74,0.00,,,-99.99,856.0,HOBO +U30 +Weather +,2013-04-23 20:40:00,
2013-04-23 13:45:00,57.6,49.4,29.61,SW,230,11.9,20.8,73,0.00,,,-99.99,857.0,HOBO +U30 +Weather +,2013-04-23 20:45:00,
2013-04-23 13:50:00,56.4,48.8,29.61,SW,227,15.9,23.7,75,0.00,,,-99.99,847.0,HOBO +U30 +Weather +,2013-04-23 20:50:00,
2013-04-23 13:55:00,57.7,49.9,29.60,SW,227,13.4,21.5,75,0.00,,,-99.99,852.0,HOBO +U30 +Weather +,2013-04-23 20:55:00,
2013-04-23 14:00:00,56.7,48.6,29.60,SW,226,13.4,20.8,74,0.00,,,-99.99,846.0,HOBO +U30 +Weather +,2013-04-23 21:00:00,
2013-04-23 14:05:00,57.2,49.5,29.61,SW,232,13.0,20.8,75,0.00,,,-99.99,839.0,HOBO +U30 +Weather +,2013-04-23 21:05:00,
2013-04-23 14:10:00,58.0,49.7,29.61,SW,227,12.3,23.0,73,0.00,,,-99.99,834.0,HOBO +U30 +Weather +,2013-04-23 21:10:00,
2013-04-23 14:15:00,56.9,49.7,29.61,SW,227,15.2,22.6,76,0.00,,,-99.99,829.0,HOBO +U30 +Weather +,2013-04-23 21:15:00,
2013-04-23 14:20:00,57.2,49.6,29.60,SW,232,14.5,23.7,75,0.00,,,-99.99,823.0,HOBO +U30 +Weather +,2013-04-23 21:20:00,
2013-04-23 14:25:00,56.9,49.3,29.60,SW,225,14.1,21.5,75,0.00,,,-99.99,818.0,HOBO +U30 +Weather +,2013-04-23 21:25:00,
2013-04-23 14:30:00,56.4,49.2,29.60,SW,230,15.2,21.5,76,0.00,,,-99.99,813.0,HOBO +U30 +Weather +,2013-04-23 21:30:00,
2013-04-23 14:35:00,56.5,49.4,29.60,SW,225,14.5,21.5,77,0.00,,,-99.99,797.0,HOBO +U30 +Weather +,2013-04-23 21:35:00,
2013-04-23 14:40:00,56.7,49.5,29.60,SW,227,14.1,19.2,76,0.00,,,-99.99,793.0,HOBO +U30 +Weather +,2013-04-23 21:40:00,
2013-04-23 14:45:00,56.2,49.1,29.60,SW,230,14.5,21.5,77,0.00,,,-99.99,787.0,HOBO +U30 +Weather +,2013-04-23 21:45:00,
2013-04-23 14:50:00,56.9,49.5,29.60,SW,230,13.0,19.2,76,0.00,,,-99.99,781.0,HOBO +U30 +Weather +,2013-04-23 21:50:00,
2013-04-23 14:55:00,56.5,49.0,29.60,SW,232,13.4,20.4,76,0.00,,,-99.99,773.0,HOBO +U30 +Weather +,2013-04-23 21:55:00,
2013-04-23 15:00:00,56.0,49.0,29.60,SW,230,14.1,23.7,77,0.00,,,-99.99,763.0,HOBO +U30 +Weather +,2013-04-23 22:00:00,
2013-04-23 15:05:00,55.8,49.0,29.60,SW,229,15.9,23.0,77,0.00,,,-99.99,754.0,HOBO +U30 +Weather +,2013-04-23 22:05:00,
2013-04-23 15:10:00,55.3,48.5,29.59,SW,229,15.9,23.0,77,0.00,,,-99.99,743.0,HOBO +U30 +Weather +,2013-04-23 22:10:00,
2013-04-23 15:15:00,55.7,49.3,29.59,SW,229,15.9,23.7,79,0.00,,,-99.99,737.0,HOBO +U30 +Weather +,2013-04-23 22:15:00,
2013-04-23 15:20:00,56.2,49.2,29.59,SW,229,14.5,22.6,77,0.00,,,-99.99,728.0,HOBO +U30 +Weather +,2013-04-23 22:20:00,
2013-04-23 15:25:00,56.3,49.2,29.59,SW,227,14.5,22.6,77,0.00,,,-99.99,718.0,HOBO +U30 +Weather +,2013-04-23 22:25:00,
2013-04-23 15:30:00,56.1,48.6,29.59,SW,230,14.1,24.8,75,0.00,,,-99.99,708.0,HOBO +U30 +Weather +,2013-04-23 22:30:00,
2013-04-23 15:35:00,56.8,49.6,29.58,SW,227,14.5,24.2,76,0.00,,,-99.99,696.0,HOBO +U30 +Weather +,2013-04-23 22:35:00,
2013-04-23 15:40:00,56.0,48.8,29.58,SW,229,15.2,23.7,76,0.00,,,-99.99,684.0,HOBO +U30 +Weather +,2013-04-23 22:40:00,
2013-04-23 15:45:00,55.8,49.2,29.58,SW,232,15.9,23.0,78,0.00,,,-99.99,677.0,HOBO +U30 +Weather +,2013-04-23 22:45:00,
2013-04-23 15:50:00,55.2,48.9,29.57,WSW,237,17.0,24.8,79,0.00,,,-99.99,661.0,HOBO +U30 +Weather +,2013-04-23 22:50:00,
2013-04-23 15:55:00,56.0,49.7,29.58,SW,229,15.9,23.7,79,0.00,,,-99.99,653.0,HOBO +U30 +Weather +,2013-04-23 22:55:00,
2013-04-23 16:00:00,56.2,49.4,29.58,SW,227,14.5,21.9,77,0.00,,,-99.99,641.0,HOBO +U30 +Weather +,2013-04-23 23:00:00,
2013-04-23 16:05:00,55.9,48.8,29.57,SW,230,14.5,21.5,77,0.00,,,-99.99,631.0,HOBO +U30 +Weather +,2013-04-23 23:05:00,
2013-04-23 16:10:00,54.8,48.3,29.57,SW,232,15.9,27.5,78,0.00,,,-99.99,614.0,HOBO +U30 +Weather +,2013-04-23 23:10:00,
2013-04-23 16:15:00,55.5,49.5,29.57,SW,229,15.2,24.2,80,0.00,,,-99.99,606.0,HOBO +U30 +Weather +,2013-04-23 23:15:00,
2013-04-23 16:20:00,56.5,49.7,29.57,SW,233,11.9,20.8,77,0.00,,,-99.99,588.0,HOBO +U30 +Weather +,2013-04-23 23:20:00,
2013-04-23 16:25:00,54.7,48.8,29.57,SW,232,16.3,24.2,80,0.00,,,-99.99,574.0,HOBO +U30 +Weather +,2013-04-23 23:25:00,
2013-04-23 16:30:00,54.9,49.0,29.57,SW,230,14.1,21.9,80,0.00,,,-99.99,558.0,HOBO +U30 +Weather +,2013-04-23 23:30:00,
2013-04-23 16:35:00,54.6,49.0,29.57,SW,236,14.5,22.6,81,0.00,,,-99.99,547.0,HOBO +U30 +Weather +,2013-04-23 23:35:00,
2013-04-23 16:40:00,54.8,49.3,29.57,SW,236,14.5,22.6,81,0.00,,,-99.99,532.0,HOBO +U30 +Weather +,2013-04-23 23:40:00,
2013-04-23 16:45:00,54.7,49.5,29.57,SW,234,14.5,20.4,82,0.00,,,-99.99,518.0,HOBO +U30 +Weather +,2013-04-23 23:45:00,
2013-04-23 16:50:00,54.0,48.8,29.57,SW,230,15.2,24.2,82,0.00,,,-99.99,507.0,HOBO +U30 +Weather +,2013-04-23 23:50:00,
2013-04-23 16:55:00,54.0,49.0,29.57,SW,234,14.1,21.5,83,0.00,,,-99.99,492.0,HOBO +U30 +Weather +,2013-04-23 23:55:00,
2013-04-23 17:00:00,53.6,48.7,29.56,SW,234,14.5,22.6,83,0.00,,,-99.99,474.0,HOBO +U30 +Weather +,2013-04-24 00:00:00,
2013-04-23 17:05:00,54.2,49.3,29.57,SW,232,13.0,22.6,83,0.00,,,-99.99,477.0,HOBO +U30 +Weather +,2013-04-24 00:05:00,
2013-04-23 17:10:00,53.1,48.7,29.57,SW,229,15.2,23.0,84,0.00,,,-99.99,447.0,HOBO +U30 +Weather +,2013-04-24 00:10:00,
2013-04-23 17:15:00,53.9,49.2,29.57,SW,232,12.3,18.6,84,0.00,,,-99.99,433.0,HOBO +U30 +Weather +,2013-04-24 00:15:00,
2013-04-23 17:20:00,52.8,48.2,29.57,SW,230,14.1,20.8,84,0.00,,,-99.99,337.0,HOBO +U30 +Weather +,2013-04-24 00:20:00,
2013-04-23 17:25:00,51.9,48.1,29.57,SW,229,14.1,21.9,86,0.00,,,-99.99,257.0,HOBO +U30 +Weather +,2013-04-24 00:25:00,
2013-04-23 17:30:00,52.1,48.5,29.57,SW,230,13.0,20.8,87,0.00,,,-99.99,391.0,HOBO +U30 +Weather +,2013-04-24 00:30:00,
2013-04-23 17:35:00,52.0,48.3,29.57,SW,226,14.1,20.8,87,0.00,,,-99.99,451.0,HOBO +U30 +Weather +,2013-04-24 00:35:00,
2013-04-23 17:40:00,52.2,48.6,29.57,SW,232,11.9,21.9,87,0.00,,,-99.99,221.0,HOBO +U30 +Weather +,2013-04-24 00:40:00,
2013-04-23 17:45:00,52.0,48.5,29.57,SW,229,12.3,20.8,87,0.00,,,-99.99,372.0,HOBO +U30 +Weather +,2013-04-24 00:45:00,
2013-04-23 17:50:00,51.3,48.0,29.57,SW,232,13.0,21.5,88,0.00,,,-99.99,113.0,HOBO +U30 +Weather +,2013-04-24 00:50:00,
2013-04-23 17:55:00,51.5,48.5,29.57,SW,236,12.3,19.7,89,0.00,,,-99.99,336.0,HOBO +U30 +Weather +,2013-04-24 00:55:00,
2013-04-23 18:00:00,51.5,48.3,29.57,WSW,237,12.3,21.9,88,0.00,,,-99.99,217.0,HOBO +U30 +Weather +,2013-04-24 01:00:00,
2013-04-23 18:05:00,51.0,47.9,29.57,WSW,237,12.3,18.6,89,0.00,,,-99.99,104.0,HOBO +U30 +Weather +,2013-04-24 01:05:00,
2013-04-23 18:10:00,51.3,48.4,29.57,SW,233,12.3,20.4,89,0.00,,,-99.99,107.0,HOBO +U30 +Weather +,2013-04-24 01:10:00,
2013-04-23 18:15:00,50.6,47.6,29.57,SW,236,10.7,18.6,89,0.00,,,-99.99,82.0,HOBO +U30 +Weather +,2013-04-24 01:15:00,
2013-04-23 18:20:00,50.5,47.9,29.57,SW,236,11.9,20.4,90,0.00,,,-99.99,88.0,HOBO +U30 +Weather +,2013-04-24 01:20:00,
2013-04-23 18:25:00,50.8,48.3,29.57,SW,233,9.6,18.1,91,0.00,,,-99.99,72.0,HOBO +U30 +Weather +,2013-04-24 01:25:00,
2013-04-23 18:30:00,50.2,47.6,29.57,SW,234,12.3,21.9,90,0.00,,,-99.99,53.0,HOBO +U30 +Weather +,2013-04-24 01:30:00,
2013-04-23 18:35:00,50.4,48.2,29.57,SW,234,13.0,19.2,92,0.00,,,-99.99,67.0,HOBO +U30 +Weather +,2013-04-24 01:35:00,
2013-04-23 18:40:00,49.9,47.7,29.57,SW,233,12.3,20.4,92,0.00,,,-99.99,83.0,HOBO +U30 +Weather +,2013-04-24 01:40:00,
2013-04-23 18:45:00,49.8,47.8,29.57,WSW,240,10.7,17.4,92,0.00,,,-99.99,58.0,HOBO +U30 +Weather +,2013-04-24 01:45:00,
2013-04-23 18:50:00,49.4,47.3,29.57,SW,234,11.9,18.1,92,0.00,,,-99.99,39.0,HOBO +U30 +Weather +,2013-04-24 01:50:00,
2013-04-23 18:55:00,49.0,47.1,29.57,SW,234,13.4,20.8,93,0.00,,,-99.99,38.0,HOBO +U30 +Weather +,2013-04-24 01:55:00,
2013-04-23 19:00:00,49.4,47.7,29.57,SW,232,13.0,20.8,93,0.00,,,-99.99,58.0,HOBO +U30 +Weather +,2013-04-24 02:00:00,
2013-04-23 19:05:00,49.6,47.8,29.56,SW,232,11.2,18.6,93,0.00,,,-99.99,51.0,HOBO +U30 +Weather +,2013-04-24 02:05:00,
2013-04-23 19:10:00,49.1,47.4,29.56,SW,234,12.3,19.2,93,0.00,,,-99.99,32.0,HOBO +U30 +Weather +,2013-04-24 02:10:00,
2013-04-23 19:15:00,49.0,47.4,29.57,SW,234,10.7,16.3,94,0.00,,,-99.99,33.0,HOBO +U30 +Weather +,2013-04-24 02:15:00,
2013-04-23 19:20:00,48.8,47.3,29.57,SW,234,10.1,15.2,94,0.00,,,-99.99,19.0,HOBO +U30 +Weather +,2013-04-24 02:20:00,
2013-04-23 19:25:00,48.7,47.2,29.57,SW,234,10.1,17.4,94,0.00,,,-99.99,14.0,HOBO +U30 +Weather +,2013-04-24 02:25:00,
2013-04-23 19:30:00,48.6,47.3,29.57,SW,230,10.1,15.9,95,0.00,,,-99.99,12.0,HOBO +U30 +Weather +,2013-04-24 02:30:00,
2013-04-23 19:35:00,48.6,47.3,29.56,SW,229,10.1,14.5,95,0.00,,,-99.99,11.0,HOBO +U30 +Weather +,2013-04-24 02:35:00,
2013-04-23 19:40:00,48.5,47.3,29.57,SW,229,10.1,16.3,95,0.00,,,-99.99,7.0,HOBO +U30 +Weather +,2013-04-24 02:40:00,
2013-04-23 19:45:00,48.3,47.2,29.56,WSW,240,10.1,17.4,96,0.00,,,-99.99,6.0,HOBO +U30 +Weather +,2013-04-24 02:45:00,
2013-04-23 19:50:00,48.1,47.1,29.56,SW,236,10.1,17.0,96,0.00,,,-99.99,3.0,HOBO +U30 +Weather +,2013-04-24 02:50:00,
2013-04-23 19:55:00,48.4,47.4,29.56,SW,234,10.7,18.1,96,0.00,,,-99.99,2.0,HOBO +U30 +Weather +,2013-04-24 02:55:00,
2013-04-23 20:00:00,48.2,47.2,29.56,SW,226,13.0,19.2,96,0.00,,,-99.99,1.0,HOBO +U30 +Weather +,2013-04-24 03:00:00,
2013-04-23 20:05:00,48.1,47.1,29.56,SW,232,12.3,18.6,96,0.00,,,-99.99,1.0,HOBO +U30 +Weather +,2013-04-24 03:05:00,
2013-04-23 20:10:00,48.0,47.1,29.57,SW,233,13.4,19.7,96,0.00,,,-99.99,1.0,HOBO +U30 +Weather +,2013-04-24 03:10:00,
2013-04-23 20:15:00,48.0,47.2,29.57,SW,232,12.3,20.4,97,0.00,,,-99.99,1.0,HOBO +U30 +Weather +,2013-04-24 03:15:00,
2013-04-23 20:20:00,47.9,47.1,29.57,SW,230,12.3,18.6,97,0.00,,,-99.99,1.0,HOBO +U30 +Weather +,2013-04-24 03:20:00,
2013-04-23 20:25:00,47.9,47.1,29.57,SW,232,10.1,15.9,97,0.00,,,-99.99,1.0,HOBO +U30 +Weather +,2013-04-24 03:25:00,
2013-04-23 20:30:00,48.0,47.2,29.57,SW,232,10.1,16.3,96,0.00,,,-99.99,1.0,HOBO +U30 +Weather +,2013-04-24 03:30:00,
2013-04-23 20:35:00,47.8,46.9,29.57,SW,232,11.2,17.0,96,0.00,,,-99.99,1.0,HOBO +U30 +Weather +,2013-04-24 03:35:00,
2013-04-23 20:40:00,47.9,47.0,29.57,SW,227,10.7,15.9,96,0.00,,,-99.99,1.0,HOBO +U30 +Weather +,2013-04-24 03:40:00,
2013-04-23 20:45:00,48.0,47.2,29.57,SW,234,8.9,15.2,97,0.00,,,-99.99,1.0,HOBO +U30 +Weather +,2013-04-24 03:45:00,
2013-04-23 20:50:00,48.1,47.4,29.58,SW,233,9.6,17.0,97,0.00,,,-99.99,1.0,HOBO +U30 +Weather +,2013-04-24 03:50:00,
2013-04-23 20:55:00,48.1,47.2,29.57,SW,227,8.9,16.3,96,0.00,,,-99.99,1.0,HOBO +U30 +Weather +,2013-04-24 03:55:00,
2013-04-23 21:00:00,48.1,47.3,29.58,SW,234,8.9,15.2,97,0.00,,,-99.99,1.0,HOBO +U30 +Weather +,2013-04-24 04:00:00,
2013-04-23 21:05:00,47.8,47.0,29.58,WSW,241,8.9,15.9,96,0.00,,,-99.99,1.0,HOBO +U30 +Weather +,2013-04-24 04:05:00,
2013-04-23 21:10:00,48.1,47.3,29.58,WSW,239,9.6,18.6,97,0.00,,,-99.99,1.0,HOBO +U30 +Weather +,2013-04-24 04:10:00,
2013-04-23 21:15:00,48.2,47.4,29.58,WSW,237,6.3,13.0,96,0.00,,,-99.99,1.0,HOBO +U30 +Weather +,2013-04-24 04:15:00,
2013-04-23 21:20:00,48.1,47.2,29.59,SW,236,7.4,15.2,96,0.00,,,-99.99,1.0,HOBO +U30 +Weather +,2013-04-24 04:20:00,
2013-04-23 21:25:00,47.8,47.0,29.59,WSW,239,6.7,14.5,96,0.00,,,-99.99,1.0,HOBO +U30 +Weather +,2013-04-24 04:25:00,
2013-04-23 21:30:00,48.0,47.2,29.59,WSW,237,8.5,14.5,97,0.00,,,-99.99,1.0,HOBO +U30 +Weather +,2013-04-24 04:30:00,
2013-04-23 21:35:00,48.2,47.4,29.59,SW,230,6.7,14.1,97,0.00,,,-99.99,1.0,HOBO +U30 +Weather +,2013-04-24 04:35:00,
2013-04-23 21:40:00,48.1,47.3,29.59,SW,234,5.6,10.1,96,0.00,,,-99.99,1.0,HOBO +U30 +Weather +,2013-04-24 04:40:00,
2013-04-23 21:45:00,48.2,47.3,29.59,SW,232,5.1,9.6,96,0.00,,,-99.99,1.0,HOBO +U30 +Weather +,2013-04-24 04:45:00,
2013-04-23 21:50:00,48.1,47.2,29.59,SW,226,7.8,13.4,96,0.00,,,-99.99,1.0,HOBO +U30 +Weather +,2013-04-24 04:50:00,
2013-04-23 21:55:00,48.2,47.2,29.59,SW,227,7.4,14.1,96,0.00,,,-99.99,1.0,HOBO +U30 +Weather +,2013-04-24 04:55:00,
2013-04-23 22:00:00,48.4,47.4,29.59,SW,230,6.3,13.0,96,0.00,,,-99.99,1.0,HOBO +U30 +Weather +,2013-04-24 05:00:00,
2013-04-23 22:05:00,48.4,47.4,29.59,SW,232,6.3,11.9,96,0.00,,,-99.99,1.0,HOBO +U30 +Weather +,2013-04-24 05:05:00,
2013-04-23 22:10:00,48.3,47.3,29.59,SW,233,7.4,12.3,96,0.00,,,-99.99,1.0,HOBO +U30 +Weather +,2013-04-24 05:10:00,
2013-04-23 22:15:00,48.1,47.0,29.59,SW,225,10.1,15.2,96,0.00,,,-99.99,1.0,HOBO +U30 +Weather +,2013-04-24 05:15:00,
2013-04-23 22:20:00,48.5,47.4,29.59,SW,230,6.7,12.3,96,0.00,,,-99.99,1.0,HOBO +U30 +Weather +,2013-04-24 05:20:00,
2013-04-23 22:25:00,48.5,47.3,29.59,WSW,240,5.6,12.3,95,0.00,,,-99.99,1.0,HOBO +U30 +Weather +,2013-04-24 05:25:00,
2013-04-23 22:30:00,48.1,46.9,29.59,SW,229,7.8,16.3,95,0.00,,,-99.99,1.0,HOBO +U30 +Weather +,2013-04-24 05:30:00,
2013-04-23 22:35:00,48.4,47.2,29.59,SW,225,8.5,15.2,95,0.00,,,-99.99,1.0,HOBO +U30 +Weather +,2013-04-24 05:35:00,
2013-04-23 22:40:00,48.4,47.2,29.59,SW,226,6.7,12.3,95,0.00,,,-99.99,1.0,HOBO +U30 +Weather +,2013-04-24 05:40:00,
2013-04-23 22:45:00,48.2,47.0,29.58,SW,230,7.8,14.1,95,0.00,,,-99.99,1.0,HOBO +U30 +Weather +,2013-04-24 05:45:00,
2013-04-23 22:50:00,48.1,46.9,29.59,SW,230,7.4,11.9,95,0.00,,,-99.99,1.0,HOBO +U30 +Weather +,2013-04-24 05:50:00,
2013-04-23 22:55:00,48.2,47.0,29.59,SW,229,6.3,12.3,95,0.00,,,-99.99,1.0,HOBO +U30 +Weather +,2013-04-24 05:55:00,
2013-04-23 23:00:00,48.3,47.1,29.59,SW,230,6.7,10.7,95,0.00,,,-99.99,1.0,HOBO +U30 +Weather +,2013-04-24 06:00:00,
2013-04-23 23:05:00,48.4,47.2,29.59,SW,229,5.6,13.0,95,0.00,,,-99.99,1.0,HOBO +U30 +Weather +,2013-04-24 06:05:00,
2013-04-23 23:10:00,48.4,47.2,29.59,SW,227,5.6,11.2,95,0.00,,,-99.99,1.0,HOBO +U30 +Weather +,2013-04-24 06:10:00,
2013-04-23 23:15:00,48.2,47.0,29.58,SW,230,5.1,9.6,95,0.00,,,-99.99,1.0,HOBO +U30 +Weather +,2013-04-24 06:15:00,
2013-04-23 23:20:00,48.2,47.0,29.58,SW,220,6.3,12.3,95,0.00,,,-99.99,1.0,HOBO +U30 +Weather +,2013-04-24 06:20:00,
2013-04-23 23:25:00,48.2,46.9,29.58,SW,229,4.5,11.9,95,0.00,,,-99.99,1.0,HOBO +U30 +Weather +,2013-04-24 06:25:00,
2013-04-23 23:30:00,48.1,46.9,29.57,SW,225,6.7,12.3,95,0.00,,,-99.99,1.0,HOBO +U30 +Weather +,2013-04-24 06:30:00,
2013-04-23 23:35:00,48.0,47.0,29.57,SW,222,7.4,12.3,96,0.00,,,-99.99,1.0,HOBO +U30 +Weather +,2013-04-24 06:35:00,
2013-04-23 23:40:00,48.0,46.9,29.57,SW,222,6.7,12.3,96,0.00,,,-99.99,1.0,HOBO +U30 +Weather +,2013-04-24 06:40:00,
2013-04-23 23:45:00,48.0,47.0,29.57,SW,226,7.4,11.2,96,0.00,,,-99.99,1.0,HOBO +U30 +Weather +,2013-04-24 06:45:00,
2013-04-23 23:50:00,48.2,47.2,29.57,SW,232,6.3,12.3,96,0.00,,,-99.99,1.0,HOBO +U30 +Weather +,2013-04-24 06:50:00,
2013-04-23 23:55:00,48.2,47.2,29.57,SW,223,4.5,8.5,96,0.00,,,-99.99,1.0,HOBO +U30 +Weather +,2013-04-24 06:55:00,